Wind_Speed
26 23 23 23 18 16 23 28 27 23 23 23 23 22 21 21 21 23 25 27 30 32 32 33 33 33 33 31 30 29 29 29 27 25 23 22 22 21 20 19 17 16 15 13 12 11 10 11 13 15 16 18 20 21 21 20 20 21 21 20 19 17 17
31 24 23 25 21 16 22 27 26 24 22 22 22 23 23 22 22 23 25 26 27 30 31 32 33 33 33 31 31 30 30 30 28 26 25 24 22 21 20 19 18 17 16 14 13 12 11 12 13 15 16 18 20 21 21 21 21 22 22 22 21 19 18
31 26 24 27 23 16 19 24 25 23 22 21 22 23 24 23 21 21 23 25 26 27 30 32 33 33 33 32 31 31 30 30 30 28 26 24 23 22 21 20 20 18 17 17 16 14 13 13 13 14 16 18 20 21 22 22 22 23 24 24 23 22 20
29 27 26 27 24 17 17 20 22 23 22 21 22 23 24 23 21 19 19 22 25 27 28 30 31 32 32 32 31 31 31 30 30 29 27 26 25 24 24 22 21 20 19 18 18 17 16 15 14 14 15 18 20 22 22 22 22 24 25 25 25 25 23
28 27 27 27 25 21 19 18 20 21 21 21 21 22 24 23 23 21 18 18 22 25 26 27 29 31 31 31 31 31 31 30 30 29 28 28 27 26 26 24 23 22 21 20 20 20 19 18 16 15 15 16 19 22 23 23 24 25 26 27 27 27 25
29 29 28 27 25 24 20 17 18 18 18 19 21 23 25 25 25 24 21 18 19 22 25 27 28 30 30 30 31 31 31 31 31 30 30 30 29 28 27 26 25 24 23 23 22 22 21 20 19 18 17 16 17 20 23 24 26 26 28 29 29 29 28
27 27 27 28 27 23 18 17 19 18 17 18 21 23 25 27 26 26 24 22 19 20 24 27 28 29 30 30 31 31 31 31 31 31 31 31 30 29 28 28 28 26 25 25 25 24 24 23 21 20 20 19 18 19 21 23 25 27 29 30 31 30 30
25 25 25 28 28 22 18 18 18 18 17 18 21 23 24 27 28 28 26 25 22 21 22 24 25 26 27 29 30 30 30 31 31 31 31 32 31 31 30 30 29 28 28 27 26 26 26 25 24 23 22 22 21 21 21 22 24 27 29 31 31 31 31
23 24 23 23 24 22 20 19 18 18 16 16 19 22 23 26 29 29 28 27 26 25 23 22 23 23 24 26 27 28 29 30 31 32 32 32 32 32 31 31 30 29 30 29 28 28 28 27 26 26 25 25 24 24 23 22 22 25 29 31 32 33 33
20 23 23 22 21 21 21 21 21 19 16 13 14 18 20 22 26 29 30 29 28 27 25 23 23 23 23 24 25 25 27 29 30 31 31 32 32 31 31 31 31 31 31 30 31 31 30 30 29 29 28 28 27 26 25 24 23 23 27 30 32 33 34
18 21 24 23 20 21 23 25 24 21 19 16 13 14 17 19 22 26 29 30 29 28 28 27 25 23 22 23 24 25 25 26 27 28 29 30 30 30 31 31 32 32 32 32 32 33 33 32 32 32 31 30 29 28 27 26 24 23 25 29 32 34 35
18 19 19 17 17 19 21 23 24 22 20 18 15 15 17 18 20 23 27 29 31 31 31 30 29 27 24 24 25 25 25 25 26 26 27 27 28 29 30 31 32 33 33 32 33 34 34 33 32 33 33 32 31 30 29 28 27 25 25 27 30 33 35
17 17 15 13 14 16 17 18 20 19 18 16 15 15 17 19 21 23 25 28 31 34 34 33 33 31 28 26 26 26 26 25 25 25 24 24 25 27 28 29 30 31 31 30 31 32 34 34 32 32 33 33 31 31 31 30 29 28 26 26 29 32 35
11 12 14 13 14 15 16 17 17 18 17 16 15 15 16 18 22 24 26 27 31 36 38 36 36 35 32 29 28 27 26 26 25 24 23 23 23 24 25 25 25 26 27 26 26 28 30 32 31 30 31 33 32 31 32 31 31 30 29 27 28 31 34
8 9 12 13 15 16 17 18 18 19 18 17 16 15 14 16 20 24 28 30 33 37 39 40 39 38 36 33 31 29 28 27 26 25 25 24 24 24 24 24 23 23 24 23 22 22 24 27 28 26 26 29 31 32 32 33 33 32 31 29 28 30 32
6 8 10 10 12 15 16 17 18 19 19 19 18 17 15 15 17 22 28 33 34 35 38 41 40 39 39 36 33 32 30 29 28 27 26 26 25 25 25 25 25 25 25 25 22 21 21 23 25 24 22 23 26 29 31 32 33 32 32 31 29 29 31
6 8 10 9 9 11 14 17 18 18 19 20 19 18 17 16 17 20 26 32 35 34 36 40 39 39 39 38 36 34 33 31 30 28 28 28 28 28 27 27 28 28 28 28 26 23 23 23 25 25 23 22 22 25 27 29 30 31 32 32 31 30 31
7 8 10 11 9 8 10 13 15 17 19 20 20 19 18 17 17 19 23 29 34 36 36 38 37 36 37 38 38 37 35 33 32 31 30 30 30 30 29 29 30 30 31 31 29 27 26 25 26 27 27 25 23 23 24 25 26 28 30 31 32 31 31
9 7 8 10 10 10 9 10 12 16 19 21 21 21 20 18 16 17 19 26 33 36 35 34 34 34 35 38 39 38 36 35 34 33 32 32 32 32 32 31 31 32 32 32 32 31 29 27 27 28 29 29 27 25 24 24 24 25 28 30 32 32 32
12 11 10 11 12 12 12 14 15 17 20 21 22 22 21 19 17 15 16 22 29 33 33 32 33 33 33 35 37 37 36 36 35 34 34 34 34 34 34 33 32 33 33 33 33 33 31 30 30 29 29 31 31 30 27 26 26 26 26 28 30 32 33
17 17 16 14 14 15 17 17 17 18 20 22 23 22 21 20 18 16 15 18 24 29 31 31 32 31 30 32 35 36 36 36 35 34 35 35 36 36 35 34 33 34 34 34 34 33 33 33 33 32 31 31 33 34 32 30 28 28 27 27 29 31 34
17 17 17 17 19 21 20 19 19 20 22 23 24 24 22 20 18 15 14 16 21 26 29 30 31 30 28 29 32 34 35 35 34 34 35 35 36 36 35 35 34 34 35 35 35 34 34 34 34 35 35 34 34 35 36 34 32 31 30 29 29 31 34
14 15 18 23 26 24 22 21 22 22 22 23 25 25 24 21 18 16 14 15 19 23 28 30 31 29 27 26 28 31 32 33 33 34 34 35 35 35 35 35 35 35 36 36 35 35 35 35 36 36 36 37 36 36 37 37 36 34 32 31 30 31 33
16 19 22 26 27 25 25 24 23 23 23 24 25 25 25 23 20 17 15 15 18 21 26 29 30 30 28 26 27 29 30 31 32 33 34 34 34 34 35 35 35 36 36 36 36 36 36 37 38 38 38 39 39 39 39 38 37 36 34 34 34 34 34
20 21 21 23 24 25 25 24 24 24 24 24 26 26 26 25 22 19 17 16 17 20 24 27 30 32 31 29 29 29 29 30 31 32 33 33 33 33 34 35 36 37 37 37 37 38 39 39 40 40 40 40 40 40 41 40 39 37 36 37 37 37 37
22 20 19 22 23 22 22 23 23 24 24 25 27 27 27 27 24 22 20 18 18 20 22 25 28 32 34 34 32 31 30 30 31 32 32 32 33 34 36 37 38 38 39 39 39 40 40 40 41 41 41 41 41 41 42 41 40 38 37 37 38 38 39
22 21 21 21 21 20 21 22 22 22 23 24 26 28 30 29 27 25 23 21 21 21 22 23 26 30 34 36 35 33 32 31 31 32 34 35 36 37 37 38 39 39 40 40 40 41 41 41 42 42 42 42 42 42 41 40 40 38 36 35 36 37 39
23 23 22 22 21 20 21 22 22 23 23 22 23 27 31 31 30 27 25 23 23 22 23 24 24 27 33 36 37 36 34 33 33 33 36 37 38 39 39 39 40 40 40 40 40 41 41 41 42 43 43 42 41 40 38 36 37 37 35 35 35 36 38
24 24 24 24 23 21 21 22 23 24 23 22 22 25 28 32 33 30 27 25 25 25 25 25 24 25 29 35 38 38 37 35 35 36 38 39 39 40 40 40 40 40 40 40 41 42 42 42 42 43 42 41 39 38 36 35 36 37 36 35 35 35 36
25 25 25 26 25 23 22 23 24 25 24 23 22 23 26 29 32 33 30 28 27 27 27 27 26 25 26 31 38 40 39 38 38 39 40 40 41 42 41 40 40 40 40 41 42 43 43 43 43 43 43 42 41 40 39 39 40 40 39 36 35 36 36
26 26 27 28 28 25 24 24 24 26 26 24 22 22 23 25 28 32 32 30 27 27 28 28 27 26 26 29 35 38 39 39 39 40 42 42 42 43 43 43 42 42 42 42 43 44 44 44 44 44 45 44 43 43 42 43 44 44 42 39 38 38 39
26 27 28 29 29 28 27 26 25 26 27 25 23 22 22 22 24 27 30 29 27 26 26 27 26 26 27 30 34 36 37 38 39 40 41 42 42 43 44 46 46 45 45 44 44 44 44 44 45 46 47 46 45 44 44 45 46 44 43 42 41 41 41
25 27 28 29 29 29 29 28 26 26 27 27 26 24 22 21 21 22 24 26 27 26 25 25 25 25 26 28 31 34 35 36 37 39 39 40 41 42 43 46 47 47 47 47 47 46 45 46 47 47 47 46 45 45 45 45 44 43 43 44 44 44 43
23 25 27 29 30 30 30 30 28 27 28 28 26 24 23 22 20 19 19 21 24 25 24 24 24 24 24 25 26 27 28 30 31 33 35 37 39 41 42 44 46 47 48 48 48 47 47 47 47 45 44 44 44 44 44 44 43 43 43 44 45 46 46
23 24 26 28 29 30 30 30 30 29 28 27 26 24 23 23 22 20 18 18 19 21 23 24 24 25 25 25 25 25 25 25 26 27 29 31 34 37 40 42 43 45 46 46 46 46 46 46 45 43 42 42 43 43 44 45 44 44 46 47 48 50 51
25 25 25 26 27 29 29 29 30 30 28 26 25 25 24 24 23 22 20 19 19 19 20 22 23 23 24 25 25 25 24 24 24 25 26 27 29 32 35 37 39 41 43 43 42 41 41 40 40 40 40 41 42 43 44 46 46 46 47 48 49 51 53
29 28 26 26 27 28 28 28 28 28 26 25 25 26 26 26 25 24 23 22 21 21 21 22 23 23 24 24 24 23 23 24 24 24 24 25 28 29 30 31 33 35 36 36 35 35 35 36 36 37 38 40 41 43 44 46 47 47 47 48 48 50 51
31 30 28 26 27 28 28 28 27 26 26 26 26 27 28 28 28 27 25 24 23 23 23 23 24 24 24 25 24 24 24 25 25 24 24 25 26 27 27 27 29 30 30 31 32 33 34 35 37 38 39 41 43 44 45 46 47 47 48 48 49 50 51
Wind_Direction
221 211 218 234 240 236 223 215 214 217 222 228 229 232 235 236 237 236 232 227 224 222 220 220 220 220 221 222 222 222 219 218 218 219 219 218 219 220 223 226 229 234 236 240 242 242 241 235 229 227 225 222 222 222 223 224 226 223 219 218 221 224 224
227 214 210 227 235 231 222 216 214 216 222 227 228 229 232 234 235 235 232 228 226 225 224 223 222 222 222 222 223 222 220 219 219 220 221 222 222 223 225 227 230 235 238 240 243 244 244 243 239 234 229 225 223 224 224 224 225 223 219 217 219 224 226
224 215 207 221 228 223 221 218 213 214 222 227 228 229 232 235 236 235 233 228 224 224 224 224 224 223 222 222 222 223 221 220 220 221 222 224 225 226 227 229 230 234 237 238 241 244 244 245 245 241 237 232 227 226 226 227 226 224 221 218 218 223 226
215 213 207 217 223 220 220 220 216 214 220 225 227 229 232 234 235 235 234 229 224 222 223 224 224 224 223 222 222 222 221 220 220 222 223 225 226 227 229 232 233 235 237 239 242 244 245 246 247 246 242 239 235 233 230 229 228 226 223 221 219 222 225
205 204 203 212 223 226 222 220 217 217 221 226 227 227 229 231 231 232 233 229 225 224 223 224 224 225 224 223 223 222 222 221 221 222 223 224 226 228 230 233 235 236 238 239 241 243 246 248 249 249 249 246 243 241 237 233 231 228 226 224 222 223 225
199 199 201 210 222 224 219 216 217 219 223 226 227 227 226 227 228 229 230 227 223 222 222 223 223 225 225 224 224 224 223 222 222 223 224 225 228 229 231 234 236 237 238 239 241 243 245 247 249 251 252 252 249 246 243 238 235 231 228 226 225 225 226
197 202 205 209 216 220 214 211 213 216 220 222 226 228 226 227 228 227 228 227 221 218 218 220 221 222 224 225 226 226 226 225 225 226 227 228 230 231 232 234 236 237 239 240 242 244 245 247 248 250 252 253 253 251 248 243 239 236 232 228 228 228 228
197 204 207 206 211 215 212 210 210 213 218 220 226 229 226 227 228 227 228 227 222 218 215 216 219 220 221 223 225 227 228 229 229 230 231 231 232 233 233 234 236 237 239 241 243 245 247 248 249 250 251 252 253 254 254 248 241 239 236 231 230 230 230
196 202 205 203 208 211 210 212 212 214 216 217 223 230 229 227 227 228 230 228 225 222 218 214 215 216 217 219 222 224 226 229 231 232 233 233 234 234 234 236 237 238 240 242 244 245 247 249 249 250 251 252 252 253 254 253 246 240 238 235 231 231 231
191 196 199 199 200 203 208 216 217 214 216 217 222 230 232 231 230 229 230 230 228 225 223 218 215 213 212 213 216 220 222 225 228 230 231 233 234 234 235 237 238 240 241 242 243 246 247 248 249 250 250 251 252 252 253 255 252 245 241 238 233 232 232
179 189 200 203 200 199 207 218 219 217 221 227 227 228 229 230 230 230 230 231 230 228 226 223 220 216 211 208 209 213 217 219 222 226 227 229 233 235 236 238 240 241 242 242 243 246 248 248 249 251 251 251 253 254 254 255 256 252 246 242 237 233 233
187 195 203 207 206 206 212 222 226 226 232 237 232 225 224 224 225 227 229 230 231 230 229 227 225 223 216 209 207 209 211 213 216 220 223 226 230 234 236 238 241 243 244 243 243 246 250 250 249 251 253 253 254 256 257 257 259 257 252 247 242 237 234
193 199 198 195 198 202 206 215 223 226 230 230 222 217 220 223 223 223 224 227 228 230 230 229 228 227 222 214 211 212 213 213 215 217 219 221 225 230 234 236 239 242 244 244 243 245 249 252 251 251 252 254 254 255 257 258 259 259 256 251 247 242 237
173 187 191 186 186 192 196 200 209 215 216 215 212 211 217 224 226 225 223 222 224 226 228 229 229 229 227 221 216 216 216 217 218 219 220 223 225 228 232 234 236 240 243 244 242 242 245 251 254 252 251 253 254 253 254 256 256 257 257 253 250 247 241
143 171 186 186 186 190 193 196 201 206 208 210 212 214 221 229 232 230 225 222 221 223 225 228 228 229 229 226 220 219 218 219 221 222 223 226 228 229 234 237 239 240 243 244 243 240 241 246 252 255 252 251 253 252 251 252 253 254 254 252 250 249 246
157 172 187 196 195 192 193 196 200 205 208 210 212 216 225 234 238 235 229 224 223 223 224 227 229 228 228 228 224 221 220 221 223 224 225 228 229 230 234 240 243 244 245 247 246 243 241 244 249 255 255 251 252 253 251 249 249 251 252 252 251 250 249
192 187 192 198 195 194 198 197 197 203 207 210 212 217 226 234 237 238 233 228 227 226 224 226 229 229 228 227 226 223 222 221 223 225 227 229 231 234 236 239 243 246 248 250 250 248 247 247 250 255 259 256 253 254 255 253 251 250 251 252 251 250 250
220 211 208 205 204 214 215 205 200 201 202 207 212 214 222 230 233 236 236 232 229 228 226 226 231 232 229 226 226 225 224 223 222 224 227 229 232 235 237 238 240 244 247 250 252 252 252 252 254 257 262 264 260 256 256 258 257 254 253 252 252 251 250
233 225 219 217 222 232 232 223 218 209 201 202 209 211 215 223 227 231 236 234 230 229 230 230 234 236 233 227 225 224 224 223 223 224 226 229 232 234 237 238 238 242 246 248 251 253 254 255 256 258 261 265 267 264 261 260 261 259 256 254 253 252 251
237 233 227 230 235 240 235 225 220 215 207 202 205 210 213 216 220 224 229 233 231 230 232 233 233 237 236 230 227 225 224 224 224 225 227 229 232 233 236 239 239 241 245 249 251 253 255 257 258 258 260 263 268 270 268 265 263 263 260 257 255 254 252
239 236 233 239 244 243 238 229 221 219 216 209 205 208 211 212 216 221 226 231 231 230 232 233 233 235 236 232 228 227 227 227 228 228 230 231 233 235 237 240 242 243 245 249 253 254 256 258 260 261 261 261 263 268 270 269 266 266 265 262 259 256 254
239 240 239 241 239 237 236 232 226 223 220 216 211 209 210 212 216 221 225 230 232 231 233 234 233 234 235 232 229 229 231 232 232 232 233 235 237 238 240 242 244 245 246 249 253 255 256 258 261 262 263 262 262 265 269 271 270 268 267 266 264 260 256
253 251 244 236 233 235 236 233 230 228 226 223 218 213 212 215 220 224 224 227 231 232 234 236 236 235 234 232 229 231 233 234 235 235 236 238 240 241 242 244 244 245 245 247 251 255 258 259 260 262 265 267 267 267 268 271 273 272 270 267 265 263 260
247 244 238 231 229 232 235 233 231 231 233 230 225 220 218 219 223 227 227 228 231 233 236 239 238 236 235 232 229 230 233 234 235 236 237 239 241 242 243 244 245 245 246 248 250 253 255 257 258 260 263 266 268 268 268 270 272 272 270 265 262 260 259
239 241 235 229 228 229 230 231 230 232 235 235 231 227 224 223 226 229 229 230 233 237 240 242 240 237 234 231 228 228 231 234 234 235 237 239 241 242 243 244 244 245 246 246 248 249 250 253 256 259 261 263 265 267 268 269 270 271 269 266 263 260 258
241 244 236 232 232 229 226 228 228 229 234 237 235 233 230 229 229 229 229 230 235 241 244 243 241 237 233 231 229 229 231 233 235 236 237 238 239 240 242 243 243 243 244 245 245 246 247 250 254 257 259 260 262 264 266 268 270 269 268 266 264 262 260
238 237 233 230 228 225 224 226 226 226 230 235 236 236 235 233 231 231 230 231 234 241 245 242 238 236 233 231 231 231 231 232 235 235 235 235 236 238 240 242 243 243 244 245 245 246 248 250 252 255 257 258 260 263 265 267 268 266 263 261 261 262 261
237 234 231 227 222 219 221 224 224 224 227 232 236 238 237 236 235 233 232 231 233 239 243 242 237 234 233 231 231 232 233 233 233 234 234 234 235 237 238 240 241 243 244 245 246 246 247 248 250 252 255 256 258 260 262 263 262 261 259 258 259 261 262
239 234 232 231 226 221 221 224 225 224 225 228 234 237 238 238 238 237 235 233 233 236 241 242 238 233 232 232 232 232 233 233 232 232 233 235 236 236 237 238 239 241 242 242 243 244 245 246 248 251 253 255 257 259 260 258 258 258 258 258 259 262 264
237 236 236 236 233 228 227 228 226 224 223 225 229 234 237 238 238 239 238 235 234 236 240 243 242 237 233 233 232 232 232 233 232 232 234 235 236 236 235 236 237 239 240 240 240 241 243 245 248 251 254 256 258 260 259 256 256 258 260 260 261 262 264
234 235 237 239 237 235 235 234 229 224 222 222 226 231 236 238 237 238 238 237 236 237 240 243 244 240 235 232 232 231 232 233 234 234 235 236 237 237 237 236 236 238 239 240 239 240 243 246 249 253 257 258 258 258 256 255 255 258 260 262 263 264 265
234 234 237 239 238 237 239 238 235 229 223 222 224 229 234 237 237 236 235 235 236 237 239 241 242 239 233 230 230 230 231 232 233 234 236 237 238 239 239 237 237 238 240 240 240 241 244 248 251 254 256 256 256 255 254 254 256 259 262 265 266 266 266
238 236 237 238 238 239 240 239 237 233 227 223 222 227 232 236 237 235 232 230 230 232 235 237 237 235 232 231 232 232 233 235 237 238 239 240 241 242 241 239 239 240 240 240 241 243 246 249 251 253 254 254 254 254 254 256 259 262 265 267 268 267 266
246 243 241 240 240 240 240 239 237 234 230 224 222 226 232 237 240 238 234 229 228 229 231 232 232 232 231 231 233 234 235 237 239 241 243 244 244 245 243 242 241 241 241 242 243 245 247 249 249 250 251 253 254 254 256 258 261 264 265 265 265 266 266
254 252 249 245 243 242 242 240 237 234 231 227 224 226 232 237 240 241 239 235 232 230 230 231 231 231 231 231 232 233 236 239 241 243 246 247 247 247 246 245 245 245 245 246 247 248 249 250 250 251 253 255 256 258 259 260 262 263 263 263 263 264 265
259 258 255 250 248 245 241 238 235 232 230 229 228 228 231 234 237 239 239 238 237 236 235 234 233 233 233 233 234 235 238 242 244 245 246 246 247 247 247 248 249 250 250 251 253 254 254 255 257 258 259 261 262 262 263 263 263 263 264 265 266 266 267
259 259 256 253 249 244 238 232 230 230 230 232 233 233 232 233 235 237 237 236 236 237 237 237 237 237 238 238 239 239 240 241 242 243 243 242 243 245 246 247 249 251 254 255 257 258 258 259 260 261 262 264 265 265 266 267 268 268 269 270 271 271 272
258 258 255 250 245 240 233 228 227 228 231 234 236 236 235 234 234 235 234 234 233 233 234 234 235 237 238 238 238 237 236 236 237 238 238 236 239 243 246 247 249 250 252 254 256 258 260 262 263 265 266 267 268 268 269 270 272 273 273 273 274 275 275
Height
3131 3135 3136 3136 3136 3137 3138 3140 3142 3144 3146 3149 3151 3154 3155 3156 3158 3159 3161 3163 3166 3168 3170 3172 3174 3177 3179 3181 3184 3186 3188 3190 3192 3194 3196 3197 3199 3200 3201 3202 3203 3204 3205 3206 3207 3208 3209 3210 3210 3210 3211 3212 3212 3213 3214 3215 3216 3217 3218 3219 3220 3221 3222
3127 3130 3133 3134 3134 3135 3137 3138 3140 3142 3144 3146 3149 3151 3153 3154 3155 3157 3159 3161 3163 3166 3168 3170 3172 3174 3177 3179 3182 3184 3186 3188 3190 3192 3194 3195 3197 3198 3200 3201 3202 3203 3204 3205 3206 3207 3207 3208 3209 3209 3210 3210 3211 3212 3213 3214 3215 3215 3217 3218 3219 3220 3221
3123 3127 3131 3132 3132 3133 3135 3136 3138 3140 3142 3144 3146 3148 3150 3152 3153 3155 3157 3159 3161 3164 3166 3168 3170 3172 3174 3177 3179 3181 3184 3186 3188 3190 3192 3193 3195 3197 3198 3199 3200 3201 3202 3203 3204 3205 3206 3206 3207 3208 3209 3209 3210 3210 3212 3213 3213 3214 3215 3217 3218 3219 3220
3120 3123 3129 3130 3130 3132 3133 3134 3136 3137 3139 3141 3143 3146 3147 3149 3152 3153 3155 3157 3159 3161 3163 3165 3168 3170 3172 3174 3177 3179 3181 3183 3185 3187 3190 3191 3193 3194 3196 3197 3198 3199 3200 3201 3202 3203 3204 3205 3205 3206 3207 3208 3208 3209 3210 3211 3212 3213 3214 3215 3216 3217 3218
3118 3121 3126 3128 3128 3129 3130 3132 3134 3135 3137 3139 3141 3143 3145 3148 3150 3152 3153 3155 3157 3159 3161 3163 3166 3167 3169 3172 3174 3176 3178 3181 3183 3185 3187 3189 3190 3192 3193 3195 3196 3197 3198 3199 3200 3201 3202 3203 3204 3205 3205 3206 3207 3207 3208 3209 3210 3211 3212 3213 3215 3215 3216
3116 3119 3122 3125 3126 3126 3127 3130 3132 3134 3136 3137 3139 3141 3143 3145 3147 3149 3151 3153 3155 3157 3159 3161 3163 3165 3167 3169 3171 3173 3176 3178 3180 3182 3184 3186 3187 3189 3191 3192 3194 3195 3196 3197 3198 3199 3200 3201 3202 3203 3203 3204 3205 3206 3206 3208 3209 3209 3210 3212 3213 3214 3215
3114 3115 3119 3123 3123 3123 3125 3128 3130 3132 3134 3136 3137 3139 3141 3143 3145 3147 3149 3151 3153 3155 3156 3158 3160 3162 3164 3166 3168 3170 3173 3175 3177 3179 3181 3183 3185 3186 3188 3190 3191 3192 3194 3195 3196 3197 3198 3199 3200 3201 3202 3203 3203 3204 3204 3205 3207 3207 3208 3210 3211 3212 3213
3111 3113 3115 3119 3120 3121 3123 3126 3128 3130 3132 3134 3135 3136 3138 3140 3142 3144 3146 3148 3151 3152 3154 3155 3157 3159 3161 3163 3165 3167 3170 3172 3174 3177 3178 3180 3182 3183 3185 3187 3188 3190 3191 3192 3193 3194 3195 3197 3198 3199 3200 3200 3201 3202 3202 3203 3204 3205 3206 3207 3209 3210 3211
3109 3111 3113 3116 3118 3120 3121 3123 3126 3128 3130 3132 3133 3134 3136 3138 3140 3141 3143 3146 3148 3149 3151 3153 3154 3156 3158 3160 3162 3164 3167 3169 3171 3173 3175 3177 3178 3180 3182 3184 3186 3187 3188 3189 3191 3192 3193 3194 3195 3196 3197 3198 3199 3200 3200 3201 3202 3203 3203 3205 3207 3208 3209
3108 3109 3111 3114 3117 3119 3120 3121 3122 3125 3127 3129 3131 3132 3134 3135 3137 3139 3141 3143 3145 3147 3149 3151 3152 3154 3156 3158 3160 3162 3164 3166 3168 3170 3172 3174 3175 3177 3180 3181 3183 3184 3185 3187 3188 3189 3190 3192 3193 3193 3195 3196 3196 3197 3198 3198 3200 3201 3201 3202 3204 3206 3207
3105 3106 3108 3111 3113 3116 3118 3118 3120 3122 3125 3127 3129 3130 3131 3133 3135 3136 3138 3140 3142 3144 3146 3149 3150 3152 3153 3156 3158 3160 3161 3163 3165 3167 3169 3171 3173 3174 3177 3178 3180 3181 3182 3184 3185 3186 3187 3188 3190 3190 3191 3193 3194 3194 3196 3196 3197 3198 3199 3200 3201 3203 3204
3102 3104 3107 3109 3111 3113 3115 3116 3118 3120 3122 3124 3126 3128 3129 3131 3132 3134 3135 3137 3140 3142 3144 3146 3148 3149 3151 3153 3155 3157 3158 3160 3162 3164 3166 3168 3170 3172 3174 3175 3177 3178 3179 3181 3183 3184 3184 3185 3187 3188 3188 3190 3191 3192 3193 3194 3195 3196 3197 3197 3198 3199 3201
3101 3104 3106 3107 3109 3111 3112 3114 3116 3118 3120 3122 3124 3125 3127 3128 3130 3131 3133 3135 3137 3139 3141 3143 3145 3146 3149 3151 3153 3154 3156 3158 3159 3161 3164 3166 3168 3169 3171 3172 3174 3175 3176 3177 3180 3181 3181 3181 3183 3185 3186 3187 3188 3189 3190 3191 3192 3193 3194 3195 3195 3196 3198
3102 3103 3104 3106 3107 3109 3110 3112 3114 3116 3118 3119 3121 3123 3124 3125 3127 3128 3130 3131 3133 3135 3137 3139 3141 3143 3146 3148 3150 3152 3154 3156 3158 3160 3162 3164 3166 3167 3168 3170 3171 3173 3173 3174 3176 3178 3179 3179 3179 3181 3182 3183 3184 3186 3187 3188 3189 3190 3191 3192 3193 3193 3194
3102 3103 3104 3105 3106 3107 3109 3111 3112 3114 3116 3117 3119 3121 3122 3123 3124 3126 3127 3128 3129 3131 3133 3135 3138 3140 3142 3145 3148 3149 3152 3154 3156 3158 3160 3162 3163 3164 3166 3167 3169 3170 3171 3172 3173 3175 3176 3177 3177 3177 3179 3180 3181 3182 3183 3184 3185 3186 3187 3188 3190 3190 3191
3102 3103 3104 3105 3105 3107 3108 3109 3111 3112 3114 3115 3117 3118 3119 3121 3122 3123 3124 3125 3126 3128 3130 3132 3134 3136 3139 3141 3144 3147 3149 3152 3154 3156 3158 3159 3161 3162 3164 3165 3166 3168 3168 3169 3170 3172 3173 3174 3174 3174 3175 3177 3177 3178 3179 3180 3181 3182 3183 3185 3186 3188 3188
3100 3103 3104 3104 3105 3106 3107 3108 3109 3110 3112 3113 3114 3116 3117 3118 3119 3120 3121 3123 3124 3126 3128 3129 3130 3133 3135 3138 3141 3144 3146 3149 3151 3153 3155 3157 3158 3160 3161 3163 3164 3165 3166 3166 3168 3169 3171 3172 3172 3172 3172 3173 3175 3175 3175 3176 3177 3179 3180 3182 3183 3185 3185
3098 3100 3101 3103 3104 3105 3106 3106 3107 3108 3109 3110 3112 3114 3115 3116 3117 3118 3119 3120 3122 3123 3125 3126 3128 3130 3132 3135 3137 3140 3143 3145 3148 3150 3152 3154 3156 3157 3159 3161 3162 3163 3163 3164 3165 3166 3168 3169 3169 3170 3170 3170 3171 3172 3173 3173 3174 3175 3177 3178 3180 3181 3182
3095 3097 3100 3101 3102 3103 3104 3105 3105 3106 3107 3108 3110 3111 3112 3114 3115 3116 3117 3118 3119 3121 3123 3124 3126 3127 3129 3131 3134 3136 3139 3142 3144 3147 3149 3151 3153 3154 3156 3157 3159 3160 3160 3161 3162 3163 3165 3166 3166 3167 3167 3167 3167 3169 3170 3171 3171 3172 3173 3175 3176 3178 3179
3093 3094 3096 3097 3099 3099 3100 3100 3101 3103 3104 3106 3107 3109 3110 3112 3113 3114 3114 3115 3117 3119 3120 3122 3123 3124 3126 3128 3131 3133 3136 3138 3141 3143 3145 3147 3149 3151 3152 3154 3156 3157 3158 3158 3159 3160 3161 3162 3163 3164 3165 3165 3165 3165 3166 3167 3168 3169 3170 3172 3173 3174 3175
3090 3091 3093 3094 3095 3096 3096 3098 3099 3101 3102 3103 3105 3107 3108 3110 3111 3111 3112 3113 3114 3116 3118 3119 3121 3122 3123 3125 3128 3130 3132 3134 3137 3140 3142 3144 3146 3147 3149 3151 3152 3154 3155 3155 3156 3157 3158 3159 3160 3161 3162 3162 3163 3162 3162 3163 3165 3166 3167 3168 3170 3171 3172
3088 3090 3091 3092 3092 3092 3094 3096 3098 3099 3100 3101 3103 3104 3106 3108 3109 3109 3110 3111 3112 3114 3115 3117 3118 3120 3121 3123 3125 3127 3129 3131 3134 3137 3139 3140 3142 3144 3146 3147 3149 3150 3151 3152 3153 3154 3155 3156 3156 3157 3158 3159 3160 3160 3159 3160 3161 3163 3164 3165 3166 3167 3167
3086 3087 3087 3087 3088 3090 3092 3094 3095 3096 3098 3100 3101 3102 3104 3106 3107 3108 3108 3109 3110 3112 3113 3114 3116 3118 3119 3120 3122 3124 3126 3129 3131 3133 3135 3137 3139 3140 3142 3144 3145 3147 3148 3149 3150 3151 3151 3152 3153 3154 3154 3155 3156 3156 3157 3157 3158 3159 3160 3162 3163 3163 3163
3082 3082 3082 3083 3086 3088 3089 3091 3093 3095 3096 3097 3099 3100 3102 3103 3104 3105 3106 3107 3108 3109 3111 3112 3114 3115 3117 3118 3120 3122 3124 3126 3129 3130 3132 3133 3135 3137 3139 3141 3142 3144 3145 3146 3147 3148 3148 3149 3150 3151 3151 3151 3151 3152 3153 3154 3154 3154 3155 3157 3158 3159 3159
3078 3078 3080 3082 3083 3085 3086 3089 3090 3092 3093 3094 3096 3098 3099 3100 3102 3102 3103 3105 3105 3107 3108 3110 3111 3113 3115 3116 3118 3119 3121 3123 3125 3127 3128 3130 3132 3134 3136 3137 3139 3140 3142 3143 3144 3144 3145 3145 3146 3146 3147 3147 3148 3148 3149 3149 3150 3150 3151 3151 3152 3154 3155
3075 3077 3078 3079 3080 3082 3084 3086 3087 3089 3090 3091 3093 3095 3097 3098 3099 3099 3101 3102 3103 3104 3106 3108 3109 3110 3112 3114 3115 3117 3118 3120 3122 3124 3126 3128 3130 3131 3132 3134 3135 3136 3137 3139 3139 3140 3141 3141 3141 3142 3142 3143 3143 3144 3144 3145 3145 3146 3146 3147 3147 3148 3150
3073 3074 3076 3077 3078 3080 3081 3082 3084 3086 3087 3088 3090 3092 3093 3094 3096 3097 3098 3099 3101 3103 3104 3105 3106 3107 3109 3111 3113 3114 3115 3117 3119 3121 3123 3125 3126 3127 3129 3130 3131 3132 3133 3134 3135 3135 3137 3137 3137 3137 3138 3138 3138 3139 3140 3140 3140 3141 3141 3142 3143 3143 3144
3070 3072 3073 3074 3076 3077 3078 3079 3081 3082 3083 3085 3087 3089 3090 3091 3093 3094 3095 3096 3098 3100 3101 3101 3103 3104 3105 3108 3109 3111 3112 3114 3116 3118 3119 3120 3122 3123 3124 3126 3127 3128 3129 3130 3131 3131 3132 3132 3133 3133 3133 3133 3134 3134 3135 3136 3136 3136 3137 3138 3138 3139 3139
3067 3069 3071 3072 3073 3074 3075 3077 3078 3079 3081 3082 3084 3085 3087 3088 3089 3091 3092 3094 3095 3096 3097 3099 3100 3101 3102 3104 3106 3107 3109 3111 3113 3114 3115 3116 3118 3119 3120 3121 3122 3123 3125 3126 3126 3126 3127 3128 3128 3128 3128 3129 3129 3130 3131 3131 3131 3130 3132 3133 3134 3134 3134
3064 3066 3067 3069 3070 3072 3073 3073 3075 3076 3078 3079 3081 3082 3083 3084 3086 3088 3089 3090 3092 3093 3094 3095 3097 3098 3099 3101 3102 3104 3106 3107 3109 3110 3111 3112 3113 3114 3116 3117 3118 3119 3120 3121 3121 3121 3122 3123 3123 3123 3124 3125 3125 3126 3126 3126 3125 3125 3127 3129 3130 3130 3130
3061 3062 3064 3065 3066 3068 3069 3070 3072 3074 3075 3077 3078 3079 3080 3081 3083 3084 3086 3087 3089 3090 3091 3092 3093 3095 3096 3097 3099 3101 3102 3103 3105 3106 3106 3107 3108 3110 3111 3112 3113 3114 3115 3116 3116 3117 3117 3118 3119 3119 3119 3120 3120 3121 3121 3121 3121 3121 3122 3124 3125 3125 3125
3058 3059 3060 3061 3063 3065 3066 3067 3069 3070 3072 3073 3074 3076 3077 3078 3079 3080 3082 3084 3085 3086 3087 3088 3090 3091 3093 3094 3095 3097 3098 3099 3101 3101 3102 3103 3104 3105 3107 3108 3108 3109 3110 3111 3112 3112 3113 3113 3114 3114 3114 3115 3115 3116 3116 3116 3116 3117 3118 3119 3120 3120 3120
3054 3056 3057 3058 3059 3061 3063 3064 3066 3067 3068 3070 3071 3072 3074 3075 3076 3078 3079 3080 3081 3083 3084 3085 3086 3088 3089 3091 3092 3094 3095 3097 3098 3099 3099 3100 3101 3101 3103 3104 3104 3105 3106 3107 3107 3107 3108 3108 3109 3109 3109 3110 3111 3111 3112 3112 3113 3114 3114 3114 3113 3113 3114
3051 3052 3053 3055 3056 3058 3059 3061 3062 3064 3065 3066 3068 3069 3071 3072 3074 3075 3076 3077 3078 3080 3081 3083 3084 3085 3086 3088 3089 3091 3092 3094 3095 3096 3096 3097 3098 3098 3099 3100 3100 3101 3101 3102 3102 3103 3103 3104 3105 3105 3105 3106 3106 3107 3107 3108 3108 3109 3109 3108 3106 3105 3107
3048 3049 3050 3051 3053 3054 3056 3057 3059 3060 3061 3063 3065 3066 3068 3069 3071 3072 3073 3074 3076 3077 3078 3080 3081 3082 3084 3085 3086 3087 3089 3090 3091 3092 3093 3094 3094 3095 3095 3096 3097 3097 3097 3098 3099 3100 3100 3100 3101 3101 3101 3101 3102 3102 3102 3103 3103 3103 3102 3101 3100 3098 3099
3045 3046 3047 3048 3050 3051 3052 3054 3056 3057 3058 3060 3061 3063 3064 3066 3067 3069 3070 3072 3073 3075 3076 3077 3078 3080 3081 3082 3083 3084 3085 3087 3088 3089 3090 3090 3091 3091 3092 3093 3093 3093 3094 3095 3096 3096 3097 3097 3097 3098 3098 3097 3097 3097 3097 3097 3097 3097 3096 3096 3095 3093 3092
3041 3042 3044 3045 3046 3048 3049 3050 3052 3054 3055 3057 3059 3060 3061 3063 3064 3066 3067 3068 3070 3072 3073 3074 3075 3076 3078 3079 3080 3081 3082 3083 3084 3085 3086 3087 3087 3087 3088 3089 3090 3090 3091 3092 3092 3093 3093 3093 3093 3093 3093 3092 3092 3092 3091 3090 3091 3091 3091 3091 3091 3089 3087
3038 3039 3041 3042 3043 3045 3046 3047 3049 3051 3052 3054 3056 3057 3059 3060 3062 3063 3064 3065 3067 3068 3070 3071 3072 3073 3074 3075 3076 3077 3078 3079 3080 3082 3083 3083 3083 3083 3085 3086 3086 3087 3087 3088 3088 3088 3088 3088 3088 3088 3088 3087 3086 3086 3086 3085 3085 3085 3086 3086 3085 3084 3082